| time (UTC) | temp F | wind direction | speed knots | gust knots | rain 1hr in | rain 24hr in | rain mn in | humidity % | barometer mb |
| 20260507155506 | 52 | 179 | 0.9 | 1.7 | 0.01 | 0.29 | 0.30 | 86 | 1007.9 |
| 20260507154002 | 50 | 194 | 0.9 | 1.7 | 0.04 | 0.29 | 0.30 | 93 | 1007.7 |
| 20260507152506 | 49 | 165 | 0.9 | 1.7 | 0.08 | 0.29 | 0.30 | 95 | 1007.8 |
| 20260507151003 | 48 | 131 | 0.0 | 0.9 | 0.13 | 0.29 | 0.30 | 95 | 1008.1 |
| 20260507145506 | 48 | 127 | 0.0 | 0.9 | 0.17 | 0.14 | 0.29 | 96 | 1008.4 |
| 20260507142507 | 47 | 192 | 0.0 | 0.9 | 0.12 | 0.14 | 0.22 | 95 | 1009.0 |
| 20260507141003 | 48 | 205 | 0.0 | 0.9 | 0.12 | 0.14 | 0.17 | 94 | 1009.0 |
| 20260507135506 | 49 | 223 | 0.0 | 0.9 | 0.02 | 0.02 | 0.11 | 94 | 1008.8 |
| 20260507134002 | 50 | 174 | 0.0 | 1.7 | 0.02 | 0.02 | 0.03 | 94 | 1008.7 |
| 20260507132512 | 50 | 28 | 0.0 | 0.0 | 0.00 | 0.00 | 0.00 | 93 | 1008.4 |
| 20260507131055 | 50 | 103 | 0.9 | 3.5 | 0.03 | 0.02 | 0.03 | 92 | 1008.2 |
| 20260507124055 | 53 | 95 | 0.9 | 5.2 | 0.00 | 0.00 | 0.00 | 80 | 1007.9 |
| 20260507122556 | 55 | 22 | 1.7 | 4.3 | 0.00 | 0.00 | 0.00 | 77 | 1007.9 |
| 20260507121055 | 65 | 157 | 0.9 | 3.5 | 0.00 | 0.00 | 0.00 | 48 | 1007.6 |
| 20260507115555 | 63 | 79 | 0.0 | 3.5 | 0.00 | 0.00 | 0.00 | 53 | 1007.7 |
| 20260507112554 | 63 | 179 | 0.9 | 3.5 | 0.00 | 0.00 | 0.00 | 57 | 1008.1 |
| 20260507111055 | 60 | 183 | 0.9 | 1.7 | 0.00 | 0.00 | 0.00 | 60 | 1008.3 |
| 20260507101059 | 58 | 209 | 0.9 | 1.7 | 0.00 | 0.00 | 0.00 | 66 | 1008.7 |
| 20260507095555 | 56 | 233 | 0.9 | 1.7 | 0.00 | 0.00 | 0.00 | 68 | 1008.7 |
| 20260507092633 | 54 | 217 | 0.9 | 1.7 | 0.00 | 0.00 | 0.00 | 73 | 1009.0 |
| 20260507091125 | 55 | 137 | 0.9 | 1.7 | 0.00 | 0.00 | 0.00 | 71 | 1008.9 |
| 20260507085618 | 55 | 129 | 0.0 | 1.7 | 0.00 | 0.00 | 0.00 | 74 | 1009.0 |
| 20260507084112 | 54 | 92 | 0.0 | 1.7 | 0.00 | 0.00 | 0.00 | 75 | 1009.0 |
| 20260507082603 | 55 | 186 | 0.9 | 2.6 | 0.00 | 0.00 | 0.00 | 74 | 1008.7 |
| 20260507081055 | 53 | 54 | 0.9 | 1.7 | 0.00 | 0.00 | 0.00 | 77 | 1008.9 |
| 20260507074055 | 51 | 76 | 0.9 | 1.7 | 0.00 | 0.00 | 0.00 | 85 | 1008.7 |
| 20260507072555 | 50 | 62 | 0.9 | 1.7 | 0.00 | 0.00 | 0.00 | 89 | 1008.8 |
| 20260507065555 | 49 | 223 | 0.0 | 0.9 | 0.00 | 0.00 | 0.00 | 92 | 1008.8 |
| 20260507064054 | 48 | 202 | 0.9 | 0.9 | 0.00 | 0.00 | 0.00 | 93 | 1008.6 |
| 20260507062555 | 47 | 245 | 0.0 | 0.9 | 0.00 | 0.00 | 0.00 | 94 | 1008.5 |
| 20260507061055 | 46 | 149 | 0.0 | 0.9 | 0.00 | 0.00 | 0.00 | 93 | 1008.4 |
| 20260507055555 | 45 | 222 | 0.0 | 0.9 | 0.00 | 0.00 | 0.00 | 93 | 1008.2 |
| 20260507054055 | 44 | 239 | 0.0 | 0.9 | 0.00 | 0.00 | 0.00 | 93 | 1008.2 |
| 20260507052555 | 44 | 274 | 0.0 | 0.9 | 0.00 | 0.00 | 0.00 | 93 | 1008.1 |
| 20260507051055 | 43 | 272 | 0.0 | 0.9 | 0.00 | 0.00 | 0.00 | 93 | 1008.0 |
| 20260507045556 | 42 | 254 | 0.0 | 0.9 | 0.00 | 0.00 | 0.00 | 92 | 1007.8 |
| 20260507044055 | 43 | 283 | 0.0 | 0.0 | 0.00 | 0.00 | 0.00 | 92 | 1007.8 |
| 20260507042555 | 43 | 225 | 0.0 | 0.9 | 0.00 | 0.00 | 0.00 | 92 | 1007.8 |
| 20260507035555 | 43 | 260 | 0.0 | 0.9 | 0.00 | 0.00 | 0.00 | 92 | 1007.8 |
| 20260507034055 | 44 | 275 | 0.9 | 0.9 | 0.00 | 0.00 | 0.00 | 92 | 1007.8 |
| 20260507032555 | 44 | 261 | 0.0 | 0.9 | 0.00 | 0.00 | 0.00 | 91 | 1007.7 |
| 20260507031055 | 45 | 249 | 0.0 | 0.9 | 0.00 | 0.00 | 0.00 | 92 | 1007.8 |
| 20260507025555 | 45 | 235 | 0.0 | 0.9 | 0.00 | 0.00 | 0.00 | 89 | 1007.6 |
| 20260507024059 | 46 | 316 | 0.0 | 0.9 | 0.00 | 0.00 | 0.00 | 90 | 1008.0 |
| 20260507022555 | 46 | 236 | 0.0 | 0.9 | 0.00 | 0.00 | 0.00 | 89 | 1007.7 |
| 20260507021054 | 47 | 213 | 0.0 | 0.9 | 0.00 | 0.00 | 0.00 | 88 | 1008.0 |
| 20260507015555 | 49 | 199 | 0.0 | 0.9 | 0.00 | 0.00 | 0.00 | 86 | 1007.9 |
| 20260507012555 | 49 | 188 | 0.0 | 0.9 | 0.00 | 0.00 | 0.00 | 84 | 1008.2 |
| 20260507011055 | 49 | 74 | 0.0 | 0.9 | 0.00 | 0.00 | 0.00 | 82 | 1008.2 |
| 20260507005555 | 49 | 188 | 0.0 | 0.9 | 0.00 | 0.00 | 0.00 | 81 | 1008.6 |
| 20260507004055 | 49 | 195 | 0.9 | 0.9 | 0.00 | 0.00 | 0.00 | 81 | 1008.6 |
| 20260507002554 | 50 | 198 | 0.0 | 0.9 | 0.00 | 0.00 | 0.00 | 82 | 1008.5 |
| 20260507001138 | 50 | 93 | 0.0 | 0.9 | 0.00 | 0.00 | 0.00 | 84 | 1008.7 |
| 20260506235627 | 50 | 143 | 0.0 | 1.7 | 0.00 | 0.00 | 0.00 | 87 | 1008.8 |
| 20260506234119 | 51 | 125 | 0.9 | 1.7 | 0.00 | 0.00 | 0.00 | 89 | 1008.9 |
| 20260506232612 | 51 | 57 | 0.9 | 1.7 | 0.00 | 0.00 | 0.00 | 90 | 1008.8 |
| 20260506225559 | 52 | 265 | 0.0 | 1.7 | 0.00 | 0.00 | 0.00 | 87 | 1009.0 |
| 20260506224055 | 52 | 206 | 0.0 | 0.9 | 0.00 | 0.00 | 0.00 | 85 | 1009.0 |
| 20260506222555 | 52 | 230 | 0.0 | 0.9 | 0.00 | 0.00 | 0.00 | 85 | 1009.0 |
| 20260506221055 | 52 | 227 | 0.0 | 0.9 | 0.00 | 0.00 | 0.00 | 85 | 1009.2 |
| 20260506215555 | 52 | 184 | 0.0 | 0.9 | 0.00 | 0.00 | 0.00 | 85 | 1009.1 |
| 20260506214055 | 52 | 202 | 0.0 | 0.9 | 0.00 | 0.00 | 0.00 | 85 | 1009.1 |
| 20260506212555 | 52 | 185 | 0.0 | 0.9 | 0.00 | 0.00 | 0.00 | 85 | 1009.0 |
| 20260506205555 | 52 | 211 | 0.0 | 0.9 | 0.00 | 0.00 | 0.00 | 84 | 1009.0 |
| 20260506204055 | 53 | 199 | 0.0 | 0.9 | 0.00 | 0.00 | 0.00 | 84 | 1008.9 |
| 20260506202555 | 52 | 180 | 0.9 | 1.7 | 0.00 | 0.00 | 0.00 | 85 | 1008.8 |
| 20260506201056 | 52 | 244 | 0.0 | 1.7 | 0.00 | 0.00 | 0.00 | 85 | 1008.6 |
| 20260506195556 | 52 | 180 | 0.9 | 1.7 | 0.00 | 0.00 | 0.00 | 85 | 1008.4 |
| 20260506194056 | 53 | 197 | 0.0 | 1.7 | 0.00 | 0.00 | 0.00 | 83 | 1008.6 |
| 20260506192557 | 53 | 179 | 0.0 | 2.6 | 0.00 | 0.00 | 0.00 | 84 | 1008.3 |
| 20260506191101 | 53 | 207 | 0.0 | 2.6 | 0.00 | 0.00 | 0.00 | 83 | 1008.3 |
| 20260506185557 | 53 | 280 | 0.0 | 3.5 | 0.00 | 0.00 | 0.00 | 83 | 1007.9 |
| 20260506184056 | 54 | 200 | 1.7 | 3.5 | 0.00 | 0.00 | 0.00 | 82 | 1007.8 |
| 20260506182556 | 55 | 167 | 1.7 | 2.6 | 0.00 | 0.00 | 0.00 | 82 | 1007.6 |
| 20260506181057 | 55 | 174 | 0.0 | 2.6 | 0.00 | 0.00 | 0.00 | 81 | 1007.6 |
| 20260506175557 | 56 | 213 | 0.9 | 2.6 | 0.00 | 0.00 | 0.00 | 82 | 1007.3 |
| 20260506174056 | 56 | 190 | 0.9 | 3.5 | 0.00 | 0.00 | 0.00 | 78 | 1007.3 |
| 20260506164056 | 60 | 251 | 0.9 | 3.5 | 0.00 | 0.00 | 0.00 | 70 | 1007.2 |
| 20260506162557 | 59 | 162 | 2.6 | 4.3 | 0.00 | 0.00 | 0.00 | 73 | 1007.1 |
| 20260506161056 | 60 | 160 | 1.7 | 3.5 | 0.00 | 0.00 | 0.00 | 69 | 1007.2 |